Location: Avully
(45.9633°N, 6.0228°E)
Time: 02:26:18
(UTC+00:00)

Cosmos 1980 Rocket - Pass Details

Date: 23 May 2024
Orbit: 827 x 851 km, 71.0° (Epoch: 21 June)

Event Time Altitude Azimuth Distance (km) Brightness Sun altitude
Rises 01:05:29 0° 325° (NW) 3,426 5.8 -20.1°
Reaches altitude 10° 01:08:11 10° 316° (NW) 2,486 4.9 -20.0°
Maximum altitude 01:13:07 31° 256° (WSW) 1,451 3.1 -19.6°
Enters shadow 01:13:55 30° 240° (WSW) 1,486 3.0 -19.5°
